20050421,000002,550635,32.651546,-119.485815,4.3,15.166,33.063,40.941,2254.30,0.0,1.482,14.426,14.387, NaN,24.443,   NaN,13.36,1017.22,87.12,13.75,28.1,27.9,7.7,8.3,312.2,311.8,7.5,8.1,NaN, NaN,21.9,225.8,227.3,1114041603,1114041603,1,0.5,000003,000003,283.1,32.651480,-119.485673,0.88,NaN,NaN,15.170, NaN,NaN,NaN, NaN, NaN
20050421,000032,550665,32.651523,-119.485925,4.3,15.156,33.069,40.939,1894.84,0.0,1.501,14.422,14.382, NaN,24.450,   NaN,13.39,1017.20,87.28,13.76,28.9,28.8,7.7,8.1,314.2,314.0,7.5,7.9,NaN, NaN,22.5,277.4,328.3,1114041633,1114041633,1,0.4,000033,000033,282.7,32.651458,-119.485785,0.59,NaN,NaN,15.160, NaN,NaN,NaN, NaN, NaN
20050421,000103,550696,32.651503,-119.486035,4.4,15.153,33.070,40.937,1284.98,0.0,1.482,14.419,14.382, NaN,24.451,   NaN,13.37,1017.16,87.56,13.75,29.0,29.0,7.8,8.2,314.4,314.3,7.6,8.0,NaN, NaN,22.6,348.8,343.6,1114041663,1114041663,1,0.5,000063,000063,281.9,32.651450,-119.485901,0.62,NaN,NaN,15.157, NaN,NaN,NaN, NaN, NaN
20050421,000132,550725,32.651466,-119.486148,4.3,15.151,33.070,40.935,1098.35,0.0,1.539,14.417,14.378, NaN,24.452,   NaN,13.14,1017.24,87.21,13.55,26.8,27.9,8.0,8.7,311.0,312.0,7.8,8.5,NaN, NaN,22.2,221.4,271.7,1114041693,1114041693,1,0.9,000093,000093,281.6,32.651413,-119.486006,0.51,NaN,NaN,15.155, NaN,NaN,NaN, NaN, NaN
20050421,000202,550755,32.651425,-119.486260,4.4,15.144,33.071,40.930,1176.63,0.0,1.539,14.415,14.375, NaN,24.454,   NaN,13.10,1017.20,87.76,13.50,28.4,28.5,7.8,8.5,312.6,312.3,7.7,8.4,NaN, NaN,22.2,234.1,242.0,1114041723,1114041723,1,0.9,000123,000123,281.0,32.651381,-119.486121,0.79,NaN,NaN,15.148, NaN,NaN,NaN, NaN, NaN
20050421,000232,550785,32.651405,-119.486375,4.4,15.137,33.079,40.932,1830.22,0.0,1.520,14.415,14.377, NaN,24.462,   NaN,13.18,1017.17,87.69,13.55,28.7,28.9,7.9,8.6,313.7,313.5,7.8,8.5,NaN, NaN,22.5,278.8,309.5,1114041753,1114041753,1,0.6,000153,000153,280.6,32.651336,-119.486225,0.87,NaN,NaN,15.141, NaN,NaN,NaN, NaN, NaN
20050421,000302,550815,32.651351,-119.486490,4.4,15.137,33.075,40.928,2129.64,0.0,1.520,14.413,14.374, NaN,24.459,   NaN,13.17,1017.17,87.21,13.59,30.3,31.2,8.4,8.9,313.7,314.4,8.3,8.8,NaN, NaN,21.8,288.8,216.9,1114041783,1114041783,1,0.6,000183,000183,278.9,32.651300,-119.486340,0.71,NaN,NaN,15.141, NaN,NaN,NaN, NaN, NaN
20050421,000332,550845,32.651295,-119.486608,4.4,15.138,33.073,40.925,1611.38,0.0,1.557,14.412,14.375, NaN,24.457,   NaN,13.17,1017.17,87.21,13.55,32.2,31.9,8.3,8.9,314.5,313.9,8.3,8.9,NaN, NaN,22.1,207.0,203.9,1114041813,1114041813,1,2.2,000213,000213,282.1,32.651236,-119.486465,0.86,NaN,NaN,15.142, NaN,NaN,NaN, NaN, NaN
20050421,000403,550876,32.651285,-119.486718,4.4,15.134,33.074,40.922,2047.75,0.0,1.576,14.408,14.369, NaN,24.458,   NaN,13.12,1017.18,87.16,13.51,28.5,29.8,8.2,8.9,312.2,313.4,8.1,8.8,NaN, NaN,21.5,218.6,230.9,1114041843,1114041843,1,0.5,000243,000243,283.9,32.651220,-119.486573,0.49,NaN,NaN,15.138, NaN,NaN,NaN, NaN, NaN
20050421,000432,550905,32.651256,-119.486840,4.4,15.130,33.075,40.920,2163.75,0.0,1.708,14.404,14.364, NaN,24.460,   NaN,13.19,1017.25,87.06,13.57,28.7,31.0,8.3,8.8,314.8,317.0,8.2,8.7,NaN, NaN,23.6,232.2,252.4,1114041873,1114041873,1,0.8,000273,000273,282.4,32.651193,-119.486688,0.61,NaN,NaN,15.134, NaN,NaN,NaN, NaN, NaN
20050421,000502,550935,32.651220,-119.486958,4.3,15.126,33.076,40.917,2152.96,0.0,1.765,14.398,14.360, NaN,24.461,   NaN,13.23,1017.27,86.99,13.59,27.8,29.1,7.9,8.6,313.4,314.5,7.8,8.5,NaN, NaN,22.7,229.0,237.6,1114041903,1114041903,1,0.8,000303,000303,282.6,32.651151,-119.486813,0.67,NaN,NaN,15.130, NaN,NaN,NaN, NaN, NaN
20050421,000532,550965,32.651201,-119.487075,4.4,15.126,33.072,40.914,2113.52,0.0,1.690,14.397,14.357, NaN,24.459,   NaN,13.24,1017.28,86.86,13.60,20.2,22.3,8.1,8.8,305.3,307.2,7.9,8.6,NaN, NaN,19.2,179.0,207.5,1114041933,1114041933,1,0.8,000333,000333,282.9,32.651130,-119.486923,0.74,NaN,NaN,15.130, NaN,NaN,NaN, NaN, NaN
20050421,000603,550996,32.651198,-119.487180,4.4,15.121,33.075,40.912,1896.08,0.0,1.765,14.392,14.355, NaN,24.462,   NaN,13.35,1017.26,87.25,13.64,16.9,19.3,8.0,8.6,302.6,305.0,7.9,8.4,NaN, NaN,18.5,246.8,359.1,1114041963,1114041963,1,0.3,000363,000363,283.2,32.651116,-119.487028,0.61,NaN,NaN,15.125, NaN,NaN,NaN, NaN, NaN
20050421,000633,551026,32.651158,-119.487298,4.5,15.119,33.074,40.909,2135.64,0.0,1.633,14.394,14.356, NaN,24.461,   NaN,13.42,1017.11,87.03,13.74,18.8,19.8,8.1,8.7,304.7,305.5,7.9,8.6,NaN, NaN,18.4,349.7,257.3,1114041993,1114041993,1,0.8,000393,000393,282.7,32.651086,-119.487150,0.60,NaN,NaN,15.123, NaN,NaN,NaN, NaN, NaN
20050421,000702,551055,32.651138,-119.487415,4.5,15.114,33.077,40.908,2148.82,0.0,1.652,14.397,14.359, NaN,24.465,   NaN,13.35,1017.15,86.77,13.70,20.3,21.3,8.8,9.4,305.0,305.9,8.5,9.2,NaN, NaN,18.7,213.3,271.6,1114042023,1114042023,1,1.3,000423,000423,281.2,32.651065,-119.487263,0.91,NaN,NaN,15.118, NaN,NaN,NaN, NaN, NaN
20050421,000733,551086,32.651111,-119.487528,4.3,15.116,33.071,40.904,2006.65,0.0,1.652,14.403,14.364, NaN,24.460,   NaN,13.31,1017.20,86.76,13.66,22.2,22.9,8.9,9.4,305.4,305.9,8.7,9.3,NaN, NaN,18.7,4.8,344.5,1114042054,1114042053,1,0.7,000453,000453,279.7,32.651040,-119.487376,0.89,NaN,NaN,15.120, NaN,NaN,NaN, NaN, NaN
20050421,000803,551116,32.651066,-119.487656,4.4,15.110,33.075,40.902,1386.90,0.0,1.576,14.405,14.366, NaN,24.464,   NaN,13.24,1017.12,86.93,13.60,24.3,24.8,8.7,9.3,306.7,307.0,8.5,9.2,NaN, NaN,18.2,225.6,261.5,1114042083,1114042083,1,0.9,000483,000483,279.9,32.651000,-119.487510,0.62,NaN,NaN,15.114, NaN,NaN,NaN, NaN, NaN
20050421,000833,551146,32.651010,-119.487776,4.4,15.115,33.071,40.902,1482.16,0.0,1.557,14.404,14.366, NaN,24.460,   NaN,13.19,1017.13,87.24,13.57,25.4,26.3,8.7,9.3,307.7,308.4,8.5,9.2,NaN, NaN,18.2,219.1,232.0,1114042113,1114042113,1,1.0,000513,000513,281.1,32.650951,-119.487641,0.75,NaN,NaN,15.119, NaN,NaN,NaN, NaN, NaN
20050421,000902,551175,32.650970,-119.487900,4.3,15.119,33.066,40.900,2185.56,0.0,1.576,14.411,14.372, NaN,24.455,   NaN,13.21,1017.18,86.97,13.59,27.8,28.1,8.6,9.3,310.9,310.9,8.5,9.2,NaN, NaN,17.9,208.1,203.2,1114042143,1114042143,1,2.0,000543,000543,280.9,32.650901,-119.487763,0.76,NaN,NaN,15.123, NaN,NaN,NaN, NaN, NaN
20050421,000933,551206,32.650953,-119.488001,4.4,15.122,33.059,40.895,2144.46,0.0,1.576,14.414,14.375, NaN,24.449,   NaN,13.26,1017.20,86.94,13.64,26.5,27.8,8.5,9.3,310.4,311.5,8.4,9.2,NaN, NaN,17.1,340.1,275.5,1114042174,1114042174,1,1.4,000573,000574,281.9,32.650871,-119.487876,0.49,NaN,NaN,15.126, NaN,NaN,NaN, NaN, NaN
20050421,001002,551235,32.650890,-119.488115,4.4,15.118,33.063,40.895,2125.57,0.0,1.539,14.416,14.378, NaN,24.453,   NaN,13.25,1017.14,86.74,13.63,23.8,25.3,8.3,9.4,308.5,309.7,8.2,9.2,NaN, NaN,18.9,211.9,230.8,1114042203,1114042203,1,1.2,000603,000603,282.1,32.650823,-119.487983,0.59,NaN,NaN,15.122, NaN,NaN,NaN, NaN, NaN
20050421,001032,551265,32.650840,-119.488241,4.4,15.121,33.059,40.894,2117.31,0.0,1.539,14.419,14.382, NaN,24.449,   NaN,13.28,1017.15,86.91,13.65,24.5,24.7,8.3,9.1,308.9,308.8,8.0,8.9,NaN, NaN,17.6,233.9,212.0,1114042233,1114042233,1,1.2,000633,000633,283.1,32.650765,-119.488096,0.76,NaN,NaN,15.125, NaN,NaN,NaN, NaN, NaN
20050421,001102,551295,32.650810,-119.488348,4.4,15.127,33.055,40.895,2083.49,0.0,1.576,14.422,14.384, NaN,24.445,   NaN,13.41,1017.17,87.14,13.75,23.2,23.3,8.2,9.0,308.1,307.9,8.0,8.9,NaN, NaN,18.5,222.3,232.1,1114042263,1114042263,1,0.8,000663,000663,283.7,32.650726,-119.488221,0.67,NaN,NaN,15.131, NaN,NaN,NaN, NaN, NaN
20050421,001132,551325,32.650773,-119.488476,4.4,15.130,33.053,40.896,1673.41,0.0,1.633,14.426,14.386, NaN,24.443,   NaN,13.34,1017.12,86.79,13.70,21.5,21.9,8.5,9.2,307.6,307.6,8.3,9.1,NaN, NaN,18.3,233.8,238.1,1114042293,1114042293,1,0.0,000693,000693,283.2,32.650695,-119.488351,0.56,NaN,NaN,15.134, NaN,NaN,NaN, NaN, NaN
20050421,001202,551355,32.650723,-119.488605,4.3,15.134,33.050,40.896,1375.52,0.0,1.539,14.433,14.393, NaN,24.440,   NaN,13.24,1017.20,86.98,13.59,20.8,21.6,8.7,9.5,307.1,307.7,8.6,9.3,NaN, NaN,18.6,231.1,221.0,1114042323,1114042323,1,1.0,000723,000723,283.4,32.650658,-119.488498,0.76,NaN,NaN,15.138, NaN,NaN,NaN, NaN, NaN
20050421,001232,551385,32.650683,-119.488710,4.5,15.138,33.048,40.899,1455.32,0.0,1.557,14.435,14.396, NaN,24.438,   NaN,13.20,1017.05,87.14,13.58,23.5,23.7,8.6,9.2,309.5,309.6,8.4,9.0,NaN, NaN,18.7,239.9,254.4,1114042353,1114042353,1,0.5,000753,000753,282.4,32.650615,-119.488580,0.53,NaN,NaN,15.142, NaN,NaN,NaN, NaN, NaN
20050421,001303,551416,32.650641,-119.488823,4.4,15.141,33.047,40.900,1378.99,0.0,1.501,14.436,14.398, NaN,24.436,   NaN,13.23,1017.13,87.33,13.58,28.8,28.8,7.9,8.4,314.4,314.3,7.7,8.3,NaN, NaN,17.6,350.8,249.2,1114042383,1114042383,1,0.7,000783,000783,282.2,32.650570,-119.488681,0.62,NaN,NaN,15.145, NaN,NaN,NaN, NaN, NaN
20050421,001332,551445,32.650576,-119.488938,4.5,15.144,33.046,40.902,1609.93,0.0,1.539,14.436,14.398, NaN,24.435,   NaN,13.31,1017.00,87.52,13.65,35.1,34.9,7.4,7.9,319.8,319.7,7.3,7.8,NaN, NaN,17.9,231.8,248.5,1114042413,1114042413,1,1.2,000813,000813,280.2,32.650506,-119.488790,0.27,NaN,NaN,15.148, NaN,NaN,NaN, NaN, NaN
20050421,001402,551475,32.650518,-119.489055,4.4,15.146,33.047,40.905,2035.46,0.0,1.539,14.436,14.400, NaN,24.435,   NaN,13.27,1017.08,87.05,13.68,35.8,35.4,7.7,8.2,319.8,319.3,7.6,8.2,NaN, NaN,17.4,211.1,240.8,1114042443,1114042443,1,1.4,000843,000843,280.7,32.650441,-119.488918,0.45,NaN,NaN,15.150, NaN,NaN,NaN, NaN, NaN
20050421,001432,551505,32.650443,-119.489183,4.4,15.150,33.046,40.907,1693.45,0.0,1.595,14.436,14.400, NaN,24.433,   NaN,13.22,1017.13,86.92,13.62,33.0,32.2,8.2,9.0,316.7,315.8,8.2,9.0,NaN, NaN,18.2,231.3,229.4,1114042473,1114042473,1,1.3,000873,000873,281.6,32.650373,-119.489040,0.68,NaN,NaN,15.154, NaN,NaN,NaN, NaN, NaN
20050421,001502,551535,32.650398,-119.489305,4.4,15.151,33.048,40.911,1107.99,0.0,1.671,14.434,14.397, NaN,24.435,   NaN,13.15,1017.18,87.33,13.53,30.2,29.7,8.3,9.2,314.3,313.6,8.3,9.2,NaN, NaN,17.2,227.6,236.5,1114042503,1114042503,1,1.5,000903,000903,283.1,32.650323,-119.489176,0.63,NaN,NaN,15.155, NaN,NaN,NaN, NaN, NaN
20050421,001533,551566,32.650341,-119.489441,4.3,15.151,33.049,40.912,1974.19,0.0,1.652,14.434,14.396, NaN,24.435,   NaN,13.16,1017.18,87.23,13.57,26.0,26.7,8.4,9.3,311.7,312.1,8.3,9.2,NaN, NaN,17.8,202.9,328.7,1114042534,1114042533,1,2.0,000933,000933,284.7,32.650288,-119.489305,0.96,NaN,NaN,15.155, NaN,NaN,NaN, NaN, NaN
20050421,001602,551595,32.650308,-119.489566,4.4,15.153,33.053,40.917,2062.72,0.0,1.652,14.428,14.391, NaN,24.438,   NaN,13.19,1017.12,87.04,13.58,23.5,25.5,8.8,9.6,310.2,312.1,8.5,9.4,NaN, NaN,17.6,237.0,312.3,1114042563,1114042563,1,1.4,000963,000963,283.6,32.650255,-119.489430,0.54,NaN,NaN,15.157, NaN,NaN,NaN, NaN, NaN
20050421,001632,551625,32.650263,-119.489701,4.4,15.149,33.057,40.918,2001.65,0.0,1.633,14.418,14.381, NaN,24.442,   NaN,13.20,1017.15,86.93,13.58,21.9,24.9,8.8,9.7,308.0,310.8,8.6,9.5,NaN, NaN,17.9,238.6,254.4,1114042593,1114042593,1,0.9,000993,000993,281.0,32.650208,-119.489573,0.62,NaN,NaN,15.153, NaN,NaN,NaN, NaN, NaN
20050421,001703,551656,32.650210,-119.489836,4.4,15.150,33.057,40.919,1995.93,0.0,1.633,14.412,14.375, NaN,24.442,   NaN,13.19,1017.02,86.83,13.56,22.0,24.4,8.8,9.6,306.8,309.0,8.6,9.4,NaN, NaN,17.7,331.8,285.0,1114042624,1114042624,1,1.1,001024,001024,281.1,32.650141,-119.489703,0.58,NaN,NaN,15.154, NaN,NaN,NaN, NaN, NaN
20050421,001733,551686,32.650143,-119.489948,4.3,15.144,33.064,40.921,1887.24,0.0,1.652,14.406,14.368, NaN,24.449,   NaN,13.23,1017.10,87.01,13.57,26.3,26.7,8.9,9.5,310.3,310.4,8.8,9.4,NaN, NaN,18.5,223.7,279.7,1114042653,1114042653,1,0.6,001053,001053,280.4,32.650113,-119.489816,0.65,NaN,NaN,15.148, NaN,NaN,NaN, NaN, NaN
20050421,001802,551715,32.650075,-119.490085,4.3,15.134,33.075,40.924,2005.43,0.0,1.727,14.404,14.366, NaN,24.459,   NaN,13.23,1017.11,86.70,13.60,27.4,27.6,9.1,9.8,311.2,311.2,9.0,9.7,NaN, NaN,18.2,225.3,236.7,1114042683,1114042683,1,1.4,001083,001083,280.9,32.650016,-119.489951,0.68,NaN,NaN,15.138, NaN,NaN,NaN, NaN, NaN
20050421,001833,551746,32.650005,-119.490200,4.4,15.123,33.085,40.924,2007.08,0.0,1.652,14.400,14.362, NaN,24.469,   NaN,13.15,1017.10,86.47,13.54,24.2,25.4,9.1,10.0,308.4,309.3,9.1,10.0,NaN, NaN,16.9,218.1,236.9,1114042713,1114042713,1,1.5,001113,001113,282.0,32.649938,-119.490063,0.64,NaN,NaN,15.127, NaN,NaN,NaN, NaN, NaN
20050421,001902,551775,32.649950,-119.490313,4.4,15.124,33.081,40.922,2011.95,0.0,1.671,14.389,14.352, NaN,24.466,   NaN,13.17,1017.11,86.54,13.53,23.5,24.6,9.1,10.0,308.3,309.1,9.0,9.9,NaN, NaN,17.7,216.8,267.9,1114042743,1114042743,1,0.8,001143,001143,282.0,32.649875,-119.490178,0.69,NaN,NaN,15.128, NaN,NaN,NaN, NaN, NaN
20050421,001933,551806,32.649880,-119.490426,4.3,15.116,33.086,40.919,1875.99,0.0,1.595,14.385,14.346, NaN,24.472,   NaN,13.23,1017.17,86.67,13.57,24.0,24.5,8.5,9.3,309.6,309.8,8.4,9.1,NaN, NaN,17.8,223.6,293.7,1114042773,1114042773,1,0.5,001173,001173,282.7,32.649816,-119.490285,0.54,NaN,NaN,15.120, NaN,NaN,NaN, NaN, NaN
20050421,002002,551835,32.649816,-119.490525,4.4,15.111,33.086,40.915,1351.03,0.0,1.595,14.382,14.343, NaN,24.473,   NaN,13.27,1017.00,86.91,13.59,22.9,22.5,8.1,8.8,308.8,308.3,8.0,8.7,NaN, NaN,18.6,190.8,245.6,1114042803,1114042803,1,0.6,001203,001203,283.4,32.649745,-119.490381,0.25,NaN,NaN,15.115, NaN,NaN,NaN, NaN, NaN
20050421,002032,551865,32.649753,-119.490618,4.5,15.106,33.087,40.912,1827.41,0.0,1.614,14.375,14.340, NaN,24.475,   NaN,13.32,1017.04,87.01,13.63,23.5,22.3,7.9,8.6,309.5,308.0,7.9,8.6,NaN, NaN,17.1,236.7,225.8,1114042833,1114042833,1,1.2,001233,001233,282.9,32.649671,-119.490471,0.46,NaN,NaN,15.110, NaN,NaN,NaN, NaN, NaN
20050421,002102,551895,32.649700,-119.490721,4.4,15.102,33.088,40.909,1982.30,0.0,1.614,14.372,14.337, NaN,24.476,   NaN,13.51,1017.03,87.25,13.80,26.9,26.6,7.4,8.2,312.9,312.4,7.4,8.2,NaN, NaN,18.6,196.6,217.9,1114042863,1114042863,1,0.9,001263,001263,282.6,32.649631,-119.490583,0.50,NaN,NaN,15.106, NaN,NaN,NaN, NaN, NaN
20050421,002133,551926,32.649651,-119.490845,4.3,15.096,33.090,40.906,1951.37,0.0,1.576,14.368,14.329, NaN,24.479,   NaN,13.47,1017.03,86.80,13.83,28.2,29.9,7.6,8.3,314.7,316.2,7.6,8.3,NaN, NaN,18.2,175.3,252.5,1114042894,1114042894,1,1.1,001294,001294,283.6,32.649581,-119.490700,0.58,NaN,NaN,15.100, NaN,NaN,NaN, NaN, NaN
20050421,002202,551955,32.649590,-119.490945,4.4,15.100,33.081,40.900,1941.25,0.0,1.652,14.364,14.325, NaN,24.471,   NaN,13.27,1016.91,86.39,13.70,29.4,30.7,8.9,9.3,314.8,315.9,8.8,9.3,NaN, NaN,17.6,222.1,267.5,1114042923,1114042923,1,0.8,001323,001323,278.0,32.649528,-119.490795,0.52,NaN,NaN,15.104, NaN,NaN,NaN, NaN, NaN
20050421,002233,551986,32.649496,-119.491051,4.4,15.087,33.088,40.894,1934.24,0.0,1.746,14.361,14.323, NaN,24.479,   NaN,13.18,1017.08,86.74,13.58,32.5,32.1,8.8,9.4,315.3,314.7,8.8,9.4,NaN, NaN,18.1,350.8,218.6,1114042954,1114042953,1,1.3,001353,001353,278.6,32.649448,-119.490895,0.86,NaN,NaN,15.091, NaN,NaN,NaN, NaN, NaN
20050421,002303,552016,32.649440,-119.491160,4.4,15.083,33.088,40.891,1648.42,0.0,1.708,14.360,14.324, NaN,24.481,   NaN,13.19,1016.98,86.84,13.58,36.6,34.2,8.2,8.8,317.6,314.8,8.3,8.8,NaN, NaN,17.2,257.8,263.8,1114042984,1114042984,1,0.6,001384,001384,277.9,32.649376,-119.491000,0.40,NaN,NaN,15.087, NaN,NaN,NaN, NaN, NaN
20050421,002333,552046,32.649346,-119.491303,4.3,15.076,33.093,40.889,1007.17,0.0,1.727,14.362,14.327, NaN,24.485,   NaN,13.17,1017.04,87.21,13.57,35.4,33.6,8.8,9.0,317.3,315.5,8.7,8.9,NaN, NaN,17.8,204.2,219.2,1114043014,1114043014,1,1.4,001414,001414,282.9,32.649281,-119.491151,0.84,NaN,NaN,15.080, NaN,NaN,NaN, NaN, NaN
20050421,002403,552076,32.649276,-119.491433,4.4,15.072,33.090,40.883,1372.27,0.0,1.746,14.352,14.315, NaN,24.484,   NaN,13.10,1016.95,87.13,13.52,31.0,31.0,9.1,9.6,315.2,315.1,9.0,9.4,NaN, NaN,18.3,236.7,214.5,1114043044,1114043044,1,1.4,001444,001444,281.1,32.649210,-119.491273,0.62,NaN,NaN,15.076, NaN,NaN,NaN, NaN, NaN
20050421,002433,552106,32.649210,-119.491563,4.4,15.069,33.088,40.878,1314.26,0.0,1.765,14.340,14.302, NaN,24.483,   NaN,13.12,1017.01,87.31,13.52,28.2,28.8,8.9,9.7,313.9,314.2,8.8,9.6,NaN, NaN,20.8,213.7,224.0,1114043074,1114043074,1,0.8,001474,001474,283.4,32.649136,-119.491403,0.66,NaN,NaN,15.073, NaN,NaN,NaN, NaN, NaN
20050421,002503,552136,32.649148,-119.491681,4.3,15.069,33.085,40.875,1940.68,0.0,1.727,14.335,14.296, NaN,24.481,   NaN,13.18,1017.03,87.06,13.59,26.8,27.3,8.9,9.5,312.6,312.8,8.8,9.4,NaN, NaN,21.7,214.2,229.0,1114043103,1114043103,1,1.2,001503,001503,284.2,32.649078,-119.491525,0.65,NaN,NaN,15.073, NaN,NaN,NaN, NaN, NaN
20050421,002533,552166,32.649100,-119.491783,4.4,15.063,33.087,40.871,1579.50,0.0,1.765,14.339,14.298, NaN,24.484,   NaN,13.18,1017.08,86.88,13.57,24.5,23.9,8.9,9.6,311.1,310.3,8.8,9.5,NaN, NaN,21.3,58.7,351.1,1114043134,1114043134,1,0.4,001534,001534,283.8,32.649026,-119.491628,0.68,NaN,NaN,15.067, NaN,NaN,NaN, NaN, NaN
20050421,002603,552196,32.649041,-119.491910,4.5,15.053,33.090,40.864,1473.40,0.0,1.803,14.342,14.304, NaN,24.488,   NaN,13.18,1016.99,87.28,13.54,25.0,24.4,8.8,9.7,312.0,311.1,8.7,9.6,NaN, NaN,21.5,229.5,259.4,1114043164,1114043164,1,0.4,001564,001564,284.4,32.648975,-119.491741,0.56,NaN,NaN,15.057, NaN,NaN,NaN, NaN, NaN
20050421,002634,552227,32.648978,-119.492036,4.4,15.045,33.094,40.862,1665.70,0.0,1.784,14.351,14.315, NaN,24.493,   NaN,13.14,1017.01,86.81,13.55,25.6,26.4,9.0,9.7,312.7,313.3,8.9,9.6,NaN, NaN,21.2,191.2,205.4,1114043194,1114043194,1,1.0,001594,001594,284.6,32.648910,-119.491871,0.83,NaN,NaN,15.049, NaN,NaN,NaN, NaN, NaN
20050421,002703,552256,32.648935,-119.492175,4.4,15.041,33.093,40.857,1616.38,0.0,1.803,14.365,14.327, NaN,24.494,   NaN,13.13,1017.03,87.04,13.52,23.4,25.9,8.8,9.7,311.1,313.3,8.7,9.6,NaN, NaN,22.0,212.3,236.7,1114043223,1114043223,1,0.9,001623,001623,283.0,32.648870,-119.492011,0.56,NaN,NaN,15.045, NaN,NaN,NaN, NaN, NaN
20050421,002733,552286,32.648876,-119.492313,4.4,15.050,33.084,40.855,1954.45,0.0,1.878,14.376,14.338, NaN,24.484,   NaN,13.21,1017.08,86.99,13.58,23.3,25.4,8.4,9.4,309.7,311.5,8.2,9.3,NaN, NaN,20.5,318.0,287.8,1114043254,1114043254,1,1.2,001654,001654,281.4,32.648805,-119.492148,0.72,NaN,NaN,15.054, NaN,NaN,NaN, NaN, NaN
20050421,002803,552316,32.648801,-119.492451,4.4,15.054,33.075,40.849,1620.33,0.0,1.803,14.392,14.355, NaN,24.477,   NaN,13.26,1017.05,86.96,13.61,23.1,24.5,8.5,9.3,308.3,309.5,8.4,9.1,NaN, NaN,21.8,217.9,272.6,1114043284,1114043284,1,0.6,001684,001684,282.0,32.648736,-119.492285,0.79,NaN,NaN,15.058, NaN,NaN,NaN, NaN, NaN
20050421,002834,552347,32.648725,-119.492593,4.4,15.068,33.060,40.846,1520.53,0.0,1.803,14.411,14.373, NaN,24.462,   NaN,13.29,1017.04,87.24,13.61,22.3,23.0,8.5,9.3,307.5,307.9,8.3,9.1,NaN, NaN,18.3,260.1,251.4,1114043314,1114043314,1,1.1,001714,001714,282.2,32.648668,-119.492426,0.69,NaN,NaN,15.072, NaN,NaN,NaN, NaN, NaN
20050421,002903,552376,32.648648,-119.492738,4.3,15.080,33.050,40.846,1415.75,0.0,1.803,14.428,14.391, NaN,24.451,   NaN,13.26,1017.02,87.29,13.59,23.6,23.3,8.1,9.0,309.7,308.9,7.9,8.8,NaN, NaN,18.0,235.6,234.0,1114043344,1114043344,1,1.7,001744,001744,282.4,32.648591,-119.492573,0.67,NaN,NaN,15.084, NaN,NaN,NaN, NaN, NaN
20050421,002933,552406,32.648580,-119.492858,4.5,15.090,33.039,40.843,1962.83,0.0,1.916,14.438,14.402, NaN,24.441,   NaN,13.40,1016.92,87.53,13.71,26.7,25.8,7.7,8.6,313.2,311.8,7.5,8.5,NaN, NaN,18.5,204.3,226.7,1114043374,1114043374,1,0.6,001774,001774,281.6,32.648510,-119.492703,0.49,NaN,NaN,15.094, NaN,NaN,NaN, NaN, NaN
20050421,003004,552437,32.648496,-119.493000,4.3,15.102,33.032,40.847,1661.19,0.0,1.973,14.450,14.413, NaN,24.433,   NaN,13.32,1017.03,86.96,13.69,29.5,29.4,8.1,8.9,315.6,315.2,8.0,8.8,NaN, NaN,18.3,5.4,291.8,1114043404,1114043404,1,0.6,001804,001804,281.9,32.648416,-119.492841,0.57,NaN,NaN,15.106, NaN,NaN,NaN, NaN, NaN
20050421,003033,552466,32.648420,-119.493123,4.5,15.118,33.022,40.851,1861.00,0.0,1.992,14.453,14.419, NaN,24.422,   NaN,13.26,1016.93,87.10,13.64,31.5,31.9,8.8,9.1,317.2,317.4,8.7,9.1,NaN, NaN,18.3,232.9,241.6,1114043434,1114043434,1,1.2,001833,001834,281.1,32.648340,-119.492978,0.49,NaN,NaN,15.122, NaN,NaN,NaN, NaN, NaN
20050421,003103,552496,32.648340,-119.493266,4.3,15.134,33.015,40.857,1970.48,0.0,1.973,14.457,14.424, NaN,24.413,   NaN,13.23,1016.98,87.21,13.62,31.7,32.8,8.6,8.8,316.6,317.6,8.5,8.8,NaN, NaN,19.2,336.1,274.1,1114043464,1114043464,1,0.5,001864,001864,280.2,32.648258,-119.493108,0.69,NaN,NaN,15.138, NaN,NaN,NaN, NaN, NaN
20050421,003133,552526,32.648238,-119.493421,4.5,15.153,33.006,40.865,1962.43,0.0,2.048,14.465,14.427, NaN,24.402,   NaN,13.29,1016.93,87.29,13.66,33.7,36.2,8.2,8.4,318.3,320.7,8.2,8.4,NaN, NaN,19.7,260.2,210.9,1114043494,1114043494,1,0.8,001894,001894,281.7,32.648165,-119.493276,0.68,NaN,NaN,15.157, NaN,NaN,NaN, NaN, NaN
20050421,003203,552556,32.648161,-119.493578,4.4,15.159,33.014,40.880,1529.33,0.0,2.067,14.467,14.430, NaN,24.406,   NaN,13.25,1016.93,87.27,13.65,32.4,33.5,8.2,8.5,318.1,319.1,8.1,8.4,NaN, NaN,19.1,221.6,261.2,1114043524,1114043524,1,0.8,001924,001924,284.4,32.648103,-119.493453,0.68,NaN,NaN,15.163, NaN,NaN,NaN, NaN, NaN
20050421,003233,552586,32.648081,-119.493728,4.4,15.168,33.010,40.884,1924.95,0.0,1.992,14.465,14.429, NaN,24.401,   NaN,13.15,1016.95,86.97,13.58,24.5,25.1,9.0,9.6,311.8,312.2,8.8,9.4,NaN, NaN,19.4,236.2,238.2,1114043554,1114043554,1,1.2,001954,001954,284.7,32.648010,-119.493596,0.63,NaN,NaN,15.172, NaN,NaN,NaN, NaN, NaN
20050421,003304,552617,32.648018,-119.493868,4.4,15.171,33.021,40.899,1896.55,0.0,1.916,14.467,14.430, NaN,24.409,   NaN,13.14,1016.94,87.14,13.54,20.5,22.0,9.3,9.9,308.2,309.5,9.1,9.7,NaN, NaN,18.7,283.1,236.3,1114043584,1114043584,1,0.9,001984,001984,283.6,32.647938,-119.493721,0.85,NaN,NaN,15.175, NaN,NaN,NaN, NaN, NaN
20050421,003334,552647,32.647935,-119.494005,4.4,15.175,33.026,40.909,1874.89,0.0,1.822,14.466,14.432, NaN,24.413,   NaN,13.21,1016.89,87.18,13.57,21.4,22.5,8.9,9.5,308.4,309.4,8.7,9.3,NaN, NaN,18.9,219.5,208.1,1114043614,1114043614,1,1.5,002014,002014,282.2,32.647858,-119.493863,0.60,NaN,NaN,15.179, NaN,NaN,NaN, NaN, NaN
20050421,003403,552676,32.647855,-119.494146,4.4,15.182,33.026,40.915,1897.07,0.0,1.841,14.469,14.434, NaN,24.411,   NaN,13.26,1016.92,87.14,13.60,23.6,24.8,8.8,9.5,309.4,310.4,8.7,9.3,NaN, NaN,19.1,211.8,202.6,1114043644,1114043644,1,1.6,002044,002044,282.2,32.647778,-119.493996,0.68,NaN,NaN,15.186, NaN,NaN,NaN, NaN, NaN
20050421,003434,552707,32.647788,-119.494281,4.3,15.177,33.038,40.923,1897.54,0.0,1.803,14.469,14.434, NaN,24.421,   NaN,13.31,1016.90,87.27,13.66,27.5,27.4,8.9,9.5,313.1,312.8,8.8,9.4,NaN, NaN,18.7,303.2,265.2,1114043674,1114043674,1,0.4,002074,002074,280.7,32.647713,-119.494131,0.77,NaN,NaN,15.181, NaN,NaN,NaN, NaN, NaN
20050421,003503,552736,32.647688,-119.494438,4.4,15.179,33.042,40.931,1878.28,0.0,1.859,14.467,14.434, NaN,24.424,   NaN,13.32,1016.89,87.11,13.70,29.0,29.0,9.0,9.4,313.9,313.7,8.9,9.4,NaN, NaN,19.0,357.2,231.4,1114043704,1114043704,1,1.1,002104,002104,278.9,32.647618,-119.494281,0.83,NaN,NaN,15.183, NaN,NaN,NaN, NaN, NaN
20050421,003534,552767,32.647591,-119.494598,4.4,15.179,33.046,40.935,1873.28,0.0,1.897,14.469,14.432, NaN,24.427,   NaN,13.34,1016.90,87.39,13.69,31.4,31.0,8.6,9.0,315.1,314.3,8.5,8.9,NaN, NaN,19.3,209.7,210.2,1114043734,1114043734,1,1.6,002134,002134,281.4,32.647515,-119.494438,0.78,NaN,NaN,15.183, NaN,NaN,NaN, NaN, NaN
20050421,003603,552796,32.647513,-119.494763,4.3,15.181,33.050,40.940,1868.57,0.0,1.859,14.469,14.432, NaN,24.429,   NaN,13.43,1016.92,87.57,13.78,34.3,33.3,7.7,8.2,319.4,318.0,7.7,8.1,NaN, NaN,19.7,241.9,233.3,1114043764,1114043764,1,1.5,002164,002164,283.4,32.647431,-119.494610,0.87,NaN,NaN,15.185, NaN,NaN,NaN, NaN, NaN